FW6934 Weather Reports


time (UTC)temp
C
wind
direction
speed
KPH
gust
KPH
rain 1hr
cm
rain 24hr
cm
rain mn
cm
humidity
%
barometer
mb
20260508213028 18 296 3.2 9.7 0.00 0.00 0.00 56 1009.5
20260508212519 18 188 1.6 12.9 0.00 0.00 0.00 58 1009.4
20260508212005 18 61 3.2 8.0 0.00 0.00 0.00 57 1009.3
20260508211526 17 360 3.2 4.8 0.00 0.00 0.00 55 1009.4
20260508211016 17 304 0.0 11.3 0.00 0.00 0.00 57 1009.4
20260508210506 17 296 3.2 11.3 0.00 0.00 0.00 58 1009.6
20260508210033 17 236 1.6 11.3 0.00 0.00 0.00 58 1009.5
20260508205521 17 275 1.6 9.7 0.00 0.00 0.00 56 1009.5
20260508205110 17 239 1.6 9.7 0.00 0.00 0.00 56 1009.6
20260508204048 17 219 0.0 8.0 0.00 0.00 0.00 57 1009.6
20260508203509 17 344 1.6 9.7 0.00 0.00 0.00 56 1009.4
20260508203011 17 199 0.0 8.0 0.00 0.00 0.00 58 1009.4
20260508202600 17 319 1.6 9.7 0.00 0.00 0.00 58 1009.4
20260508202047 16 39 3.2 9.7 0.00 0.00 0.00 58 1009.4
20260508201517 16 30 0.0 4.8 0.00 0.00 0.00 57 1009.6
20260508201009 16 150 0.0 9.7 0.00 0.00 0.00 58 1009.6
20260508200555 16 128 4.8 9.7 0.00 0.00 0.00 57 1009.6
20260508200015 17 158 4.8 9.7 0.00 0.00 0.00 57 1009.6
20260508195559 16 38 3.2 9.7 0.00 0.00 0.00 57 1009.5
20260508195017 15 221 0.0 6.4 0.00 0.00 0.00 62 1009.7
20260508194545 15 186 1.6 6.4 0.00 0.00 0.00 60 1009.7
20260508194033 15 83 1.6 6.4 0.00 0.00 0.00 60 1009.7
20260508193519 15 143 1.6 6.4 0.00 0.00 0.00 62 1009.7
20260508193115 15 167 0.0 8.0 0.00 0.00 0.00 62 1009.7
20260508192527 15 273 3.2 8.0 0.00 0.00 0.00 61 1009.8
20260508192017 16 202 0.0 11.3 0.00 0.00 0.00 59 1009.8
20260508191532 16 280 3.2 11.3 0.00 0.00 0.00 60 1009.7
20260508191002 16 168 1.6 8.0 0.00 0.00 0.00 61 1009.7
20260508190535 16 171 1.6 14.5 0.00 0.00 0.00 61 1009.7
20260508185517 15 201 9.7 14.5 0.00 0.00 0.00 61 1009.7
20260508185002 15 232 3.2 6.4 0.00 0.00 0.00 64 1009.7
20260508184517 15 355 0.0 14.5 0.00 0.00 0.00 63 1009.8
20260508184002 14 159 6.4 14.5 0.00 0.00 0.00 66 1009.9
20260508183553 14 85 3.2 6.4 0.00 0.00 0.00 64 1009.9
20260508183019 15 208 1.6 11.3 0.00 0.00 0.00 63 1009.8
20260508182600 15 181 1.6 11.3 0.00 0.00 0.00 62 1009.9
20260508182038 15 185 3.2 11.3 0.00 0.00 0.00 64 1009.8
20260508181540 15 128 3.2 12.9 0.00 0.00 0.00 63 1009.7
20260508181018 15 126 3.2 12.9 0.00 0.00 0.00 64 1009.7
20260508180557 15 195 3.2 12.9 0.00 0.00 0.00 64 1009.7
20260508180012 14 159 6.4 12.9 0.00 0.00 0.00 65 1009.6
20260508175555 13 150 3.2 11.3 0.00 0.00 0.00 65 1009.6
20260508175043 14 236 6.4 12.9 0.00 0.00 0.00 65 1009.5
20260508174503 14 317 4.8 12.9 0.00 0.00 0.00 65 1009.5
20260508174058 14 240 4.8 12.9 0.00 0.00 0.00 68 1009.5
20260508173542 13 219 1.6 12.9 0.00 0.00 0.00 67 1009.4
20260508173003 13 349 1.6 11.3 0.00 0.00 0.00 69 1009.5
20260508172551 13 49 1.6 16.1 0.00 0.00 0.00 67 1009.4
20260508172039 13 148 3.2 16.1 0.00 0.00 0.00 69 1009.3
20260508171515 13 245 3.2 11.3 0.00 0.00 0.00 69 1009.4
20260508171059 12 131 1.6 8.0 0.00 0.00 0.00 71 1009.4
20260508170546 12 166 1.6 8.0 0.00 0.00 0.00 71 1009.4
20260508170006 12 338 0.0 12.9 0.00 0.00 0.00 70 1009.3
20260508165555 12 333 1.6 12.9 0.00 0.00 0.00 70 1009.3
20260508165042 12 10 0.0 9.7 0.00 0.00 0.00 70 1009.2
20260508164503 12 178 0.0 4.8 0.00 0.00 0.00 69 1009.2
20260508164053 12 184 1.6 4.8 0.00 0.00 0.00 69 1009.1
20260508163530 12 172 1.6 11.3 0.00 0.00 0.00 70 1009.1
20260508163057 12 186 3.2 11.3 0.00 0.00 0.00 69 1009.1
20260508162528 12 201 3.2 12.9 0.00 0.00 0.00 71 1008.9
20260508162016 12 184 1.6 9.7 0.00 0.00 0.00 72 1008.7
20260508161543 12 183 3.2 9.7 0.00 0.00 0.00 71 1008.8
20260508161025 12 210 1.6 12.9 0.00 0.00 0.00 70 1008.9
20260508160512 12 219 1.6 12.9 0.00 0.00 0.00 71 1008.8
20260508160043 12 192 3.2 9.7 0.00 0.00 0.00 71 1008.8
20260508155525 12 231 1.6 4.8 0.00 0.00 0.00 72 1008.9
20260508155013 12 210 1.6 4.8 0.00 0.00 0.00 72 1008.7
20260508154544 12 62 1.6 4.8 0.00 0.00 0.00 72 1008.7
20260508154031 12 220 0.0 4.8 0.00 0.00 0.00 73 1008.7
20260508152553 11 28 0.0 4.8 0.00 0.00 0.00 80 1008.7
20260508152041 11 28 0.0 4.8 0.00 0.00 0.00 80 1008.6
20260508151506 10 20 0.0 4.8 0.00 0.00 0.00 81 1008.6
20260508151054 10 20 1.6 4.8 0.00 0.00 0.00 80 1008.6
20260508150544 10 20 1.6 4.8 0.00 0.00 0.00 80 1008.5
20260508150013 10 5 1.6 4.8 0.00 0.00 0.00 81 1008.7
20260508145601 10 5 0.0 3.2 0.00 0.00 0.00 81 1008.5
20260508145048 10 5 0.0 1.6 0.00 0.00 0.00 81 1008.6
20260508144510 10 5 0.0 1.6 0.00 0.00 0.00 82 1008.6
20260508144103 10 5 0.0 1.6 0.00 0.00 0.00 82 1008.7
20260508143549 10 5 0.0 3.2 0.00 0.00 0.00 82 1008.6
20260508143009 10 5 0.0 6.4 0.00 0.00 0.00 83 1008.5
20260508142600 9 5 1.6 6.4 0.00 0.00 0.00 83 1008.6
20260508142049 9 321 1.6 3.2 0.00 0.00 0.00 83 1008.6
20260508141512 9 321 1.6 4.8 0.00 0.00 0.00 84 1008.6
20260508141100 9 321 1.6 4.8 0.00 0.00 0.00 84 1008.6
20260508140548 8 267 1.6 3.2 0.00 0.00 0.00 85 1008.5
20260508140006 8 294 1.6 3.2 0.00 0.00 0.00 85 1008.5
20260508135557 8 294 0.0 1.6 0.00 0.00 0.00 84 1008.5
20260508135045 8 294 0.0 0.0 0.00 0.00 0.00 84 1008.1
20260508134514 8 294 0.0 0.0 0.00 0.00 0.00 84 1008.0
20260508134002 8 294 0.0 1.6 0.00 0.00 0.00 84 1007.9
20260508133553 8 294 0.0 3.2 0.00 0.00 0.00 84 1007.8
20260508133012 8 294 0.0 4.8 0.00 0.00 0.00 84 1007.7
20260508132602 8 294 1.6 6.4 0.00 0.00 0.00 84 1007.7
20260508132049 8 291 1.6 6.4 0.00 0.00 0.00 85 1007.7
20260508131508 8 271 0.0 4.8 0.00 0.00 0.00 85 1007.5
20260508131102 8 271 0.0 4.8 0.00 0.00 0.00 84 1007.3
20260508130550 8 197 0.0 1.6 0.00 0.00 0.00 84 1007.2
20260508130006 8 268 0.0 4.8 0.00 0.00 0.00 84 1007.2
20260508125557 8 268 1.6 4.8 0.00 0.00 0.00 84 1007.1
20260508125045 8 268 0.0 4.8 0.00 0.00 0.00 83 1006.9
20260508124506 8 268 0.0 4.8 0.00 0.00 0.00 83 1006.9
20260508124057 9 266 0.0 0.0 0.00 0.00 0.00 83 1006.7
20260508123543 9 266 0.0 0.0 0.00 0.00 0.00 83 1006.6
20260508123005 9 266 0.0 0.0 0.00 0.00 0.00 83 1006.6
20260508122554 9 266 0.0 0.0 0.00 0.00 0.00 84 1006.5
20260508122042 9 266 0.0 0.0 0.00 0.00 0.00 84 1006.5
20260508121503 9 266 0.0 0.0 0.00 0.00 0.00 84 1006.3
20260508121055 9 266 0.0 0.0 0.00 0.00 0.00 84 1006.3
20260508120542 9 266 0.0 0.0 0.00 0.00 0.00 84 1006.4
20260508120010 10 266 0.0 0.0 0.00 0.00 0.00 84 1006.3
20260508115601 10 266 0.0 0.0 0.00 0.00 0.00 84 1006.3
20260508115049 10 266 0.0 0.0 0.00 0.00 0.00 84 1006.4
20260508114504 10 266 0.0 0.0 0.00 0.00 0.00 83 1006.2
20260508114055 10 266 0.0 0.0 0.00 0.00 0.00 83 1006.2
20260508113543 10 266 0.0 0.0 0.00 0.00 0.00 83 1006.2
20260508113003 10 266 0.0 0.0 0.00 0.00 0.00 83 1006.1
20260508112556 10 266 0.0 0.0 0.00 0.00 0.00 83 1006.0
20260508112038 10 266 0.0 0.0 0.00 0.00 0.00 83 1005.8
20260508111507 10 266 0.0 0.0 0.00 0.00 0.00 83 1005.8
20260508111059 10 266 0.0 0.0 0.00 0.00 0.00 83 1005.8
20260508110546 10 266 0.0 0.0 0.00 0.00 0.00 82 1005.7
20260508110009 10 266 0.0 0.0 0.00 0.00 0.00 82 1005.5
20260508105557 10 266 0.0 0.0 0.00 0.00 0.00 82 1005.5
20260508105044 10 266 0.0 0.0 0.00 0.00 0.00 82 1005.4
20260508104504 10 266 0.0 0.0 0.00 0.00 0.00 82 1005.4
20260508104054 10 266 0.0 0.0 0.00 0.00 0.00 82 1005.4
20260508103543 10 266 0.0 0.0 0.00 0.00 0.00 82 1005.3
20260508103003 10 266 0.0 0.0 0.00 0.00 0.00 81 1005.3
20260508102552 10 266 0.0 0.0 0.00 0.00 0.00 81 1005.3
20260508102040 10 266 0.0 0.0 0.00 0.00 0.00 81 1005.3
20260508101510 10 266 0.0 0.0 0.00 0.00 0.00 81 1005.3
20260508101057 10 266 0.0 0.0 0.00 0.00 0.00 80 1005.3
20260508100544 10 266 0.0 0.0 0.00 0.00 0.00 80 1005.3
20260508100005 10 266 0.0 0.0 0.00 0.00 0.00 80 1005.2
20260508095556 11 266 0.0 0.0 0.00 0.00 0.00 80 1005.2
20260508095044 11 266 0.0 0.0 0.00 0.00 0.00 80 1005.2
20260508094505 11 266 0.0 0.0 0.00 0.00 0.00 80 1005.1
20260508094055 11 266 0.0 0.0 0.00 0.00 0.00 79 1005.1
20260508093544 11 266 0.0 0.0 0.00 0.00 0.00 79 1005.0
20260508093004 11 266 0.0 0.0 0.00 0.00 0.00 79 1004.8
20260508092554 11 266 0.0 0.0 0.00 0.00 0.00 78 1004.8
20260508092042 11 266 0.0 0.0 0.00 0.00 0.00 78 1004.8
20260508091504 11 266 0.0 0.0 0.00 0.00 0.00 78 1004.8
20260508091053 11 266 0.0 0.0 0.00 0.00 0.00 78 1004.9
20260508090545 11 266 0.0 0.0 0.00 0.00 0.00 78 1004.9
20260508090003 11 266 0.0 0.0 0.00 0.00 0.00 78 1004.8
20260508085552 11 266 0.0 0.0 0.00 0.00 0.00 78 1004.8
20260508085042 11 266 0.0 0.0 0.00 0.00 0.00 78 1004.8
20260508084602 11 266 0.0 0.0 0.00 0.00 0.00 78 1004.8
20260508084051 11 266 0.0 0.0 0.00 0.00 0.00 78 1004.7
20260508083538 11 266 0.0 0.0 0.00 0.00 0.00 78 1004.6
20260508083016 11 266 0.0 0.0 0.00 0.00 0.00 78 1004.6
20260508082557 11 266 0.0 0.0 0.00 0.00 0.00 78 1004.6
20260508082049 11 266 0.0 0.0 0.00 0.00 0.00 78 1004.6
20260508081509 11 266 0.0 0.0 0.00 0.00 0.00 78 1004.6
20260508081057 11 266 0.0 0.0 0.00 0.00 0.00 78 1004.5
20260508080546 11 266 0.0 0.0 0.00 0.00 0.00 77 1004.6
20260508080013 11 266 0.0 0.0 0.00 0.00 0.00 77 1004.5
20260508075601 11 266 0.0 0.0 0.00 0.00 0.00 77 1004.5
20260508075049 11 266 0.0 0.0 0.00 0.00 0.00 77 1004.5
20260508074510 12 266 0.0 3.2 0.00 0.00 0.00 77 1004.5
20260508074101 12 266 0.0 3.2 0.00 0.00 0.00 76 1004.5
20260508073549 12 266 1.6 3.2 0.00 0.00 0.00 76 1004.5
20260508073005 12 266 1.6 3.2 0.00 0.00 0.00 76 1004.4
20260508072556 12 266 1.6 3.2 0.00 0.00 0.00 76 1004.4
20260508072043 12 266 1.6 3.2 0.00 0.00 0.00 75 1004.5
20260508071513 12 266 1.6 3.2 0.00 0.00 0.00 75 1004.4
20260508071002 12 266 1.6 3.2 0.00 0.00 0.00 75 1004.4
20260508070552 12 266 1.6 4.8 0.00 0.00 0.00 74 1004.4
20260508070010 12 266 1.6 4.8 0.00 0.00 0.00 74 1004.4
20260508065559 12 266 3.2 4.8 0.00 0.00 0.00 74 1004.4
20260508065046 12 266 1.6 4.8 0.00 0.00 0.00 74 1004.4
20260508064512 12 266 3.2 4.8 0.00 0.00 0.00 73 1004.4
20260508064057 12 266 3.2 4.8 0.00 0.00 0.00 73 1004.4
20260508063547 13 266 1.6 4.8 0.00 0.00 0.00 73 1004.4
20260508063007 13 266 1.6 4.8 0.00 0.00 0.00 73 1004.5
20260508062558 13 266 1.6 4.8 0.00 0.00 0.00 73 1004.5
20260508062046 13 266 1.6 4.8 0.00 0.00 0.00 73 1004.6
20260508061505 13 267 3.2 4.8 0.00 0.00 0.00 73 1004.4
20260508061056 13 267 1.6 4.8 0.00 0.00 0.00 73 1004.5
20260508060546 13 267 1.6 3.2 0.00 0.00 0.00 72 1004.6
20260508060002 13 267 0.0 4.8 0.00 0.00 0.00 72 1004.5
20260508055553 13 267 1.6 4.8 0.00 0.00 0.00 72 1004.6
20260508055041 13 266 1.6 3.2 0.00 0.00 0.00 72 1004.6
20260508054503 13 266 1.6 3.2 0.00 0.00 0.00 72 1004.5
20260508054055 13 266 1.6 8.0 0.00 0.00 0.00 72 1004.5
20260508053542 13 266 1.6 8.0 0.00 0.00 0.00 72 1004.7
20260508053004 13 261 1.6 6.4 0.00 0.00 0.00 72 1004.4
20260508052552 13 235 1.6 6.4 0.00 0.00 0.00 72 1004.5
20260508052042 13 311 1.6 4.8 0.00 0.00 0.00 72 1004.5
20260508051504 13 296 1.6 4.8 0.00 0.00 0.00 72 1004.5
20260508051053 13 296 1.6 11.3 0.00 0.00 0.00 72 1004.4
20260508050542 14 281 3.2 11.3 0.00 0.00 0.00 73 1004.5
20260508045549 14 255 1.6 6.4 0.00 0.00 0.00 73 1004.5
20260508045040 14 226 1.6 4.8 0.00 0.00 0.00 73 1004.5
20260508044605 14 226 1.6 6.4 0.00 0.00 0.00 74 1004.5
20260508044050 15 226 3.2 6.4 0.00 0.00 0.00 74 1004.5
20260508043537 15 255 1.6 6.4 0.00 0.00 0.00 74 1004.6
20260508043007 15 269 3.2 6.4 0.00 0.00 0.00 73 1004.5
20260508042558 15 248 1.6 6.4 0.00 0.00 0.00 73 1004.5
20260508042046 15 244 3.2 6.4 0.00 0.00 0.00 72 1004.4
20260508041509 16 275 3.2 6.4 0.00 0.00 0.00 71 1004.3
20260508041056 16 13 0.0 0.0 0.00 0.00 0.00 71 1004.3
20260508040545 16 13 0.0 0.0 0.00 0.00 0.00 69 1004.2
20260508040004 16 13 0.0 0.0 0.00 0.00 0.00 68 1004.0
20260508035555 16 13 0.0 0.0 0.00 0.00 0.00 68 1004.0
20260508035042 16 13 0.0 0.0 0.00 0.00 0.00 68 1003.9
20260508034607 16 13 0.0 0.0 0.00 0.00 0.00 68 1003.9
20260508034048 16 13 0.0 0.0 0.00 0.00 0.00 68 1003.9
20260508033535 17 13 0.0 0.0 0.00 0.00 0.00 68 1003.9
20260508033058 17 13 0.0 0.0 0.00 0.00 0.00 67 1003.8
20260508032547 17 13 0.0 0.0 0.00 0.00 0.00 66 1003.8
20260508032035 17 13 0.0 0.0 0.00 0.00 0.00 66 1003.8
20260508031604 17 13 0.0 0.0 0.00 0.00 0.00 65 1003.7
20260508031046 17 13 0.0 0.0 0.00 0.00 0.00 65 1003.8
20260508030535 17 13 0.0 0.0 0.00 0.00 0.00 65 1003.7
20260508025544 17 13 0.0 0.0 0.00 0.00 0.00 65 1003.6
20260508025032 17 13 0.0 0.0 0.00 0.00 0.00 65 1003.6
20260508024505 17 13 0.0 0.0 0.00 0.00 0.00 64 1003.7
20260508024053 18 13 0.0 0.0 0.00 0.00 0.00 64 1003.6
20260508023542 18 13 0.0 0.0 0.00 0.00 0.00 62 1003.8
20260508023002 18 13 0.0 1.6 0.00 0.00 0.00 61 1003.7
20260508022553 18 13 0.0 1.6 0.00 0.00 0.00 61 1003.7
20260508022041 18 13 0.0 1.6 0.00 0.00 0.00 61 1003.6
20260508021510 18 13 0.0 4.8 0.00 0.00 0.00 61 1003.6
20260508021100 18 13 1.6 4.8 0.00 0.00 0.00 60 1003.7
20260508020551 18 13 0.0 3.2 0.00 0.00 0.00 60 1003.7
20260508020007 18 13 0.0 3.2 0.00 0.00 0.00 60 1003.7
20260508015558 19 5 0.0 1.6 0.00 0.00 0.00 60 1003.7
20260508015047 19 5 0.0 3.2 0.00 0.00 0.00 59 1003.6
20260508014512 19 19 0.0 1.6 0.00 0.00 0.00 59 1003.7
20260508014101 19 25 0.0 4.8 0.00 0.00 0.00 57 1003.7
20260508013546 20 28 1.6 4.8 0.00 0.00 0.00 58 1003.8
20260508013007 20 15 1.6 4.8 0.00 0.00 0.00 57 1003.8
20260508012601 20 360 1.6 4.8 0.00 0.00 0.00 56 1003.9
20260508012046 20 290 0.0 4.8 0.00 0.00 0.00 56 1003.9
20260508011506 20 282 1.6 6.4 0.00 0.00 0.00 55 1004.0
20260508011058 20 266 1.6 6.4 0.00 0.00 0.00 51 1003.9
20260508010545 20 66 0.0 0.0 0.00 0.00 0.00 53 1004.0
20260508010006 21 66 0.0 4.8 0.00 0.00 0.00 55 1004.1
20260508005558 21 65 0.0 4.8 0.00 0.00 0.00 52 1004.0
20260508005043 20 80 1.6 4.8 0.00 0.00 0.00 54 1004.1
20260508004503 20 90 0.0 6.4 0.00 0.00 0.00 53 1004.1
20260508004053 20 11 1.6 6.4 0.00 0.00 0.00 54 1004.1
20260508003540 20 22 3.2 6.4 0.00 0.00 0.00 54 1004.2
20260508003001 20 59 1.6 6.4 0.00 0.00 0.00 53 1004.2
20260508002551 20 94 0.0 6.4 0.00 0.00 0.00 54 1004.3
20260508002040 20 317 1.6 6.4 0.00 0.00 0.00 54 1004.3
20260508001604 20 132 0.0 6.4 0.00 0.00 0.00 56 1004.3
20260508001051 20 327 1.6 6.4 0.00 0.00 0.00 55 1004.3
20260508000538 20 355 1.6 6.4 0.00 0.00 0.00 56 1004.4
20260508000007 20 41 0.0 8.0 0.00 0.00 0.00 54 1004.4
20260507235558 20 46 1.6 8.0 0.00 0.00 0.00 55 1004.4
20260507235046 20 121 1.6 9.7 0.00 0.00 0.00 54 1004.6
20260507234505 20 63 3.2 9.7 0.00 0.00 0.00 54 1004.6
20260507234055 20 139 3.2 9.7 0.00 0.00 0.00 54 1004.6
20260507233544 20 34 3.2 8.0 0.00 0.00 0.00 56 1004.7
20260507233005 20 44 3.2 9.7 0.00 0.00 0.00 59 1004.7
20260507232556 20 25 3.2 9.7 0.00 0.00 0.00 57 1004.8
20260507232044 20 103 3.2 8.0 0.00 0.00 0.00 56 1004.8
20260507231503 20 18 1.6 6.4 0.00 0.00 0.00 57 1005.0
20260507231054 20 96 0.0 8.0 0.00 0.00 0.00 58 1005.0
20260507230542 20 73 3.2 8.0 0.00 0.00 0.00 57 1005.1
20260507230002 20 26 3.2 8.0 0.00 0.00 0.00 56 1005.2
20260507225552 20 113 1.6 8.0 0.00 0.00 0.00 55 1005.2
20260507225039 20 333 3.2 8.0 0.00 0.00 0.00 55 1005.4
20260507224602 20 338 3.2 8.0 0.00 0.00 0.00 54 1005.4
20260507224051 20 47 3.2 9.7 0.00 0.00 0.00 56 1005.4
20260507223539 19 51 3.2 12.9 0.00 0.00 0.00 56 1005.6
20260507223001 20 326 6.4 12.9 0.00 0.00 0.00 54 1005.6
20260507222551 20 41 3.2 8.0 0.00 0.00 0.00 55 1005.6
20260507222038 20 55 3.2 11.3 0.00 0.00 0.00 53 1005.7
20260507221508 20 14 1.6 11.3 0.00 0.00 0.00 53 1005.8
20260507221059 20 350 1.6 8.0 0.00 0.00 0.00 56 1005.8
20260507220547 19 81 3.2 8.0 0.00 0.00 0.00 55 1006.0
20260507220005 19 271 3.2 9.7 0.00 0.00 0.00 54 1006.0
20260507215557 19 292 4.8 9.7 0.00 0.00 0.00 54 1006.0
20260507215045 18 28 0.0 4.8 0.00 0.00 0.00 56 1006.0
20260507214515 18 48 3.2 6.4 0.00 0.00 0.00 59 1006.0
20260507214003 18 49 1.6 9.7 0.00 0.00 0.00 56 1006.5
20260507213553 18 53 4.8 9.7 0.00 0.00 0.00 56 1006.2